[[{"header":{"parameterUnit":"m.s-1","parameterCategory":1,"la1":30.2991,"la2":30.254,"lo1":-89.0895,"lo2":-89.0444,"dy":0.0017,"dx":0.0017,"nx":28,"ny":28,"refTime":"2025-06-05T03:00:00:Z","depth":0,"parameterNumber":2,"parameterNumberName":"U-component_of_WINDS"},"data":[0,0,0,0,0,0,0,0,0,0,0,0,0,0,0,0,0,0,0,0,0,0,0,0,0,0,0,0,0,0,0,0,0,0,0,0,0,0,0,0,0,0,0,0,0,0,0,0,0,0,0,0,0,0,0,0,0,0,2.5756,2.5756,0,2.5806,2.5806,2.5807,2.5807,2.5806,2.5805,2.5805,2.586,2.5862,2.5864,0,0,0,0,0,0,0,0,0,0,0,0,0,2.5663,2.5664,2.5756,2.5756,2.5757,2.5806,2.5806,2.5807,2.5807,2.5806,2.5805,2.5805,2.5859,2.5861,2.5864,0,0,0,0,0,0,0,0,0,0,0,0,0,2.5707,2.5665,2.5756,2.5763,2.5764,2.5806,2.5806,2.5807,2.5807,2.5806,2.5805,2.5804,2.5858,2.5861,2.5864,2.5903,0,0,2.5874,2.5875,0,0,0,0,0,0,0,0,2.5705,2.5711,2.5761,2.5762,2.5764,2.5799,2.5794,2.584,2.5807,2.5791,2.5805,2.5804,2.584,2.5845,2.5857,2.5906,2.5908,2.5874,2.5876,2.5877,2.5878,0,0,0,0,0,0,0,2.5702,2.5708,2.5776,2.5762,2.5763,2.5764,2.5769,2.5802,2.5821,2.5792,2.5792,2.5798,2.5841,2.5854,2.5858,2.5909,2.5874,2.5877,2.5879,2.588,2.5993,2.5994,0,0,0,0,0,0,2.5697,2.5706,2.5774,2.5777,2.5731,2.5767,2.5773,2.5789,2.582,2.5824,2.5799,2.5798,2.5849,2.5854,2.586,2.5907,2.5877,2.588,2.5882,2.5991,2.5993,2.5994,0,0,0,0,0,0,2.5695,2.5703,2.5772,2.5742,2.575,2.5769,2.5788,2.579,2.5803,2.5825,2.5829,2.5808,2.5848,2.5855,2.5892,2.5909,2.5881,2.5884,2.599,2.5992,2.5993,2.6002,0,0,0,0,0,0,2.5692,2.5702,2.5716,2.5742,2.5752,2.5803,2.5789,2.5792,2.5808,2.5807,2.5835,2.5839,2.5848,2.5887,2.5895,2.5913,2.5887,2.5989,2.5991,2.5993,2.6001,2.6004,2.6007,0,0,0,0,0,2.5689,2.5718,2.5717,2.5725,2.577,2.5804,2.581,2.5819,2.5809,2.5824,2.5839,2.5838,2.5906,2.5891,2.59,2.5919,2.5988,2.599,2.5993,2.5999,2.6004,2.6007,0,0,0,0,0,0,2.5695,2.5721,2.5721,2.5759,2.5779,2.5803,2.5823,2.5823,2.5847,2.5845,2.5857,2.5863,2.59,2.5913,2.5896,2.5958,2.5946,2.595,2.5948,2.5952,2.5955,2.5951,2.5889,0,0,0,0,0,2.5701,2.5725,2.5747,2.5778,2.5788,2.5804,2.5819,2.5824,2.5845,2.5854,2.5871,2.5893,2.5919,2.5937,2.5962,2.6003,2.6009,2.602,2.6023,2.6026,2.603,2.6052,2.6057,2.6002,2.6002,2.6002,0,0,2.5713,2.573,2.5745,2.578,2.5796,2.5821,2.5811,2.5838,2.5857,2.5859,2.5894,2.5907,2.5933,2.5971,2.5989,2.5983,2.6046,2.6029,2.6031,2.6033,2.6055,2.606,2.6064,2.6004,2.6004,2.6003,0,0,2.5748,2.5764,2.5791,2.5807,2.5831,2.5841,2.5848,2.5873,2.5881,2.5916,2.5918,2.5941,2.5986,2.6004,2.6019,2.606,2.606,2.6068,2.6085,2.6107,2.6111,2.6115,2.6129,2.6134,2.6072,2.6072,2.6072,0,2.5761,2.5798,2.5806,2.5833,2.5848,2.5849,2.5878,2.5893,2.5925,2.5936,2.5929,2.5985,2.6003,2.6045,2.6055,2.6067,2.6075,2.6065,2.611,2.6113,2.6117,2.6131,2.6136,2.6073,2.6073,2.6073,2.6073,0,2.5812,2.5837,2.5857,2.5886,2.5904,2.5931,2.5944,2.5961,2.5965,2.5976,2.6012,2.6032,2.6062,2.6072,2.6077,2.6116,2.6111,2.6107,2.6095,2.6123,2.6136,2.6141,2.6074,2.6074,2.6073,2.6073,0,0,2.5852,2.5884,2.5892,2.5904,2.5931,2.5951,2.5979,2.6007,2.6021,2.6043,2.6067,2.6105,2.6101,2.6118,2.6124,2.6143,2.6174,2.6136,2.6137,2.6142,2.6217,2.622,2.6225,2.6174,2.6175,2.6176,2.6215,0,2.5889,2.5937,2.5945,2.5988,2.6012,2.6013,2.6038,2.6057,2.6068,2.6091,2.6104,2.613,2.6123,2.6133,2.6151,2.6166,2.6189,2.6163,2.6197,2.6198,2.6189,2.6232,2.6235,2.6271,2.622,2.6221,2.6221,0,2.5939,2.5961,2.6005,2.6028,2.6038,2.606,2.6086,2.6107,2.6129,2.6136,2.6154,2.6159,2.6188,2.6175,2.6216,2.6198,2.6213,2.6222,2.6223,2.6226,2.6211,2.6236,2.6283,2.6288,2.623,2.6229,2.6228,0,2.5963,2.6004,2.6036,2.6047,2.6074,2.6089,2.6102,2.6123,2.6139,2.6162,2.6172,2.6198,2.6213,2.6234,2.6245,2.6234,2.6285,2.6273,2.6292,2.6291,2.6302,2.6301,2.6351,2.6312,2.6312,2.6312,2.6312,0,2.6004,2.6031,2.6047,2.6066,2.6097,2.6106,2.6136,2.6149,2.6167,2.6189,2.6193,2.6214,2.6228,2.6252,2.6261,2.6293,2.63,2.6307,2.6309,2.6306,2.6305,2.6315,2.6313,2.6314,2.6313,2.6313,2.6313,0,2.6036,2.6047,2.6082,2.6105,2.6111,2.6133,2.6153,2.6172,2.6183,2.6211,2.6218,2.6236,2.6263,2.6277,2.6311,2.6318,2.6354,2.6355,2.6346,2.6347,2.6365,2.6362,2.6422,2.643,2.6387,2.6387,2.6387,0,2.606,2.6081,2.6106,2.612,2.6133,2.6157,2.6172,2.6183,2.6199,2.6226,2.6242,2.6269,2.6292,2.6336,2.6352,2.6379,2.638,2.6399,2.6384,2.638,2.6379,2.6378,2.638,2.6401,2.6402,2.6402,2.6402,0,2.6103,2.6107,2.613,2.6154,2.6172,2.6192,2.6212,2.6224,2.6237,2.6256,2.6283,2.63,2.6335,2.6362,2.639,2.6404,2.6405,2.6407,2.6413,2.641,2.6403,2.6406,2.6353,2.6405,2.6405,2.6405,2.6405,2.6405,2.6132,2.615,2.617,2.6194,2.621,2.6228,2.6247,2.626,2.6282,2.631,2.6316,2.6345,2.6366,2.6403,2.6418,2.6441,2.6437,2.6445,2.6447,2.6449,2.645,2.64,2.6446,2.6446,2.6446,2.6446,2.6446,0,2.6174,2.6186,2.6209,2.6235,2.6255,2.6254,2.6275,2.6292,2.6317,2.6336,2.6358,2.639,2.6416,2.6434,2.6461,2.6476,2.6477,2.6483,2.6481,2.6484,2.6452,2.6444,2.6481,2.6481,2.6481,2.6481,2.6481,2.6481,2.6198,2.6228,2.6235,2.6273,2.6286,2.6314,2.6326,2.6343,2.6358,2.6393,2.6414,2.6426,2.6445,2.6473,2.6497,2.6502,2.6511,2.6516,2.6521,2.6491,2.6487,2.6483,2.6476,2.6519,2.6519,2.6551,2.6551,2.6552]},{"header":{"parameterUnit":"m.s-1","parameterCategory":1,"la1":30.2991,"la2":30.254,"lo1":-89.0895,"lo2":-89.0444,"dy":0.0017,"dx":0.0017,"nx":28,"ny":28,"refTime":"2025-06-05T03:00:00:Z","depth":0,"parameterNumber":3,"parameterNumberName":"V-component_of_WINDS"},"data":[0,0,0,0,0,0,0,0,0,0,0,0,0,0,0,0,0,0,0,0,0,0,0,0,0,0,0,0,0,0,0,0,0,0,0,0,0,0,0,0,0,0,0,0,0,0,0,0,0,0,0,0,0,0,0,0,0,0,3.2635,3.2636,0,3.2666,3.2666,3.2666,3.2699,3.27,3.27,3.2701,3.2729,3.2729,3.2729,0,0,0,0,0,0,0,0,0,0,0,0,0,3.2602,3.2603,3.2635,3.2636,3.2636,3.2666,3.2666,3.2667,3.2699,3.27,3.27,3.2701,3.2729,3.2729,3.2729,0,0,0,0,0,0,0,0,0,0,0,0,0,3.2623,3.2603,3.2635,3.2656,3.2658,3.2666,3.2666,3.2667,3.2699,3.27,3.27,3.2701,3.2728,3.2729,3.2729,3.2718,0,0,3.2731,3.2731,0,0,0,0,0,0,0,0,3.2622,3.2624,3.2653,3.2655,3.2657,3.2679,3.2665,3.2684,3.2699,3.2683,3.2701,3.2701,3.2711,3.2713,3.2717,3.2719,3.272,3.2731,3.2731,3.2731,3.2731,0,0,0,0,0,0,0,3.262,3.2623,3.2647,3.2653,3.2656,3.2663,3.2666,3.2668,3.2693,3.2685,3.2687,3.2691,3.2713,3.2717,3.2718,3.2721,3.2731,3.2731,3.2731,3.2732,3.2713,3.2713,0,0,0,0,0,0,3.2616,3.2621,3.2646,3.2648,3.2641,3.2663,3.2667,3.2671,3.2693,3.2697,3.269,3.2692,3.2716,3.2718,3.2719,3.2706,3.2731,3.2732,3.2732,3.2714,3.2713,3.2712,0,0,0,0,0,0,3.2615,3.2618,3.2645,3.2636,3.264,3.2663,3.2667,3.2672,3.2676,3.2697,3.2701,3.269,3.2716,3.2719,3.2718,3.2708,3.2732,3.2732,3.2715,3.2714,3.2713,3.2681,0,0,0,0,0,0,3.2614,3.2617,3.2614,3.2635,3.264,3.2644,3.2667,3.2672,3.2677,3.268,3.2698,3.2702,3.2717,3.2717,3.2718,3.2709,3.2733,3.2716,3.2715,3.2713,3.2683,3.2679,3.2675,0,0,0,0,0,3.2613,3.2604,3.2614,3.2617,3.2636,3.2643,3.2646,3.2665,3.2676,3.2672,3.2686,3.2701,3.2709,3.2717,3.2718,3.2709,3.2717,3.2715,3.2713,3.2685,3.268,3.2675,0,0,0,0,0,0,3.258,3.2607,3.2618,3.2616,3.2627,3.2649,3.2645,3.2659,3.2667,3.2669,3.2691,3.2695,3.2691,3.27,3.2708,3.2699,3.2715,3.2714,3.2693,3.2688,3.2684,3.2682,3.2733,0,0,0,0,0,3.2572,3.2577,3.26,3.2595,3.2601,3.2622,3.2625,3.2639,3.2651,3.2656,3.2669,3.2679,3.2684,3.2687,3.2693,3.2685,3.2688,3.2679,3.2675,3.2672,3.267,3.2665,3.2661,3.2707,3.2707,3.2707,0,0,3.2557,3.2572,3.2573,3.2589,3.2599,3.2602,3.2625,3.2628,3.2629,3.2656,3.2656,3.2666,3.2679,3.2674,3.2673,3.2681,3.2658,3.267,3.2667,3.2667,3.2663,3.2659,3.2655,3.2706,3.2706,3.2706,0,0,3.253,3.2542,3.2539,3.2549,3.2565,3.2579,3.2578,3.2598,3.2606,3.2607,3.2626,3.2628,3.2636,3.2644,3.2649,3.2625,3.2639,3.2626,3.2606,3.2601,3.2597,3.2594,3.2584,3.258,3.2624,3.2624,3.2624,0,3.2508,3.2514,3.2536,3.2537,3.2543,3.2568,3.2564,3.2572,3.2588,3.2591,3.2601,3.2611,3.2622,3.2619,3.2613,3.2617,3.2615,3.2623,3.2596,3.2593,3.259,3.2581,3.2577,3.2622,3.2623,3.2623,3.2623,0,3.2486,3.249,3.2485,3.2501,3.2506,3.2505,3.2526,3.2528,3.2541,3.2554,3.2553,3.2567,3.2575,3.2576,3.2588,3.2574,3.2579,3.2592,3.2609,3.2584,3.2575,3.2572,3.262,3.2621,3.2621,3.2622,0,0,3.2438,3.2466,3.2464,3.2471,3.249,3.2493,3.2492,3.2501,3.2502,3.2512,3.2511,3.2518,3.253,3.2535,3.2549,3.2545,3.2523,3.2559,3.2559,3.255,3.2506,3.2495,3.2491,3.2533,3.2532,3.2532,3.2505,0,3.2413,3.2414,3.2434,3.2429,3.2432,3.2456,3.2455,3.2465,3.2477,3.248,3.2493,3.2497,3.2513,3.2517,3.2514,3.2526,3.2514,3.2529,3.253,3.253,3.2525,3.2487,3.2475,3.2449,3.2502,3.2501,3.2501,0,3.2384,3.2393,3.2389,3.2407,3.2409,3.2408,3.2418,3.2421,3.2433,3.2442,3.2448,3.2464,3.2463,3.248,3.2478,3.2488,3.249,3.2496,3.2495,3.2495,3.2513,3.2484,3.2441,3.2437,3.2496,3.2496,3.2497,0,3.2348,3.2359,3.2358,3.2363,3.2385,3.2384,3.2392,3.2406,3.2409,3.2417,3.242,3.2427,3.2431,3.2436,3.2452,3.2463,3.2448,3.2467,3.2454,3.2453,3.2449,3.2449,3.2404,3.2452,3.2452,3.2452,3.2452,0,3.2317,3.2313,3.2342,3.2341,3.2336,3.2358,3.2353,3.2364,3.2376,3.2376,3.2397,3.2397,3.242,3.2422,3.2435,3.2431,3.2433,3.2439,3.2442,3.2436,3.2435,3.2436,3.2438,3.2451,3.2452,3.2452,3.2452,0,3.2276,3.2295,3.2295,3.2315,3.2321,3.2316,3.2334,3.2333,3.2346,3.2346,3.2347,3.2367,3.2371,3.2389,3.2396,3.2405,3.2395,3.2403,3.2391,3.2393,3.2379,3.2379,3.2333,3.2327,3.238,3.2379,3.2379,0,3.2254,3.2252,3.2272,3.2275,3.2283,3.2286,3.229,3.2312,3.2315,3.2328,3.2325,3.2331,3.2336,3.234,3.2355,3.236,3.2367,3.235,3.2368,3.2362,3.2365,3.2364,3.2363,3.2346,3.2345,3.2345,3.2344,0,3.2213,3.2223,3.2229,3.2237,3.2242,3.225,3.2259,3.2259,3.2283,3.2285,3.2289,3.2293,3.2301,3.2305,3.2313,3.2321,3.2336,3.2339,3.2336,3.2329,3.2322,3.2324,3.2379,3.234,3.234,3.2341,3.2341,3.2341,3.218,3.2179,3.2193,3.2198,3.2207,3.2215,3.2215,3.2228,3.2232,3.2241,3.2253,3.2255,3.2267,3.2279,3.2286,3.2287,3.2295,3.2292,3.229,3.2289,3.2285,3.2323,3.2288,3.2289,3.2289,3.2289,3.2289,0,3.2139,3.215,3.2154,3.2166,3.217,3.2186,3.2196,3.2198,3.22,3.221,3.2215,3.2219,3.2223,3.2238,3.2243,3.2241,3.2248,3.2242,3.2241,3.2243,3.2278,3.2279,3.2236,3.2236,3.2236,3.2236,3.2236,3.2236,3.2118,3.2116,3.2127,3.2129,3.2139,3.2142,3.2147,3.2153,3.2161,3.2165,3.2169,3.2179,3.2191,3.2197,3.2202,3.2206,3.2206,3.2197,3.2203,3.2235,3.224,3.2245,3.2246,3.2197,3.2197,3.2168,3.2168,3.2168]}]]